{"data":{"norad_id":48444,"intl_designator":"2021-040S","name":"STARLINK-2645","alt_names":[],"object_type":"PAYLOAD","status":"ACTIVE","operator":null,"country":"US","launch_date":"2021-05-09","launch_site_code":"AFETR","launch_vehicle":null,"mission":null,"orbit_class":"UNKNOWN","rcs_meters":null,"size_class":null,"mass_kg":null,"dimensions":null,"purposes":["comms"],"wikipedia_slug":null,"has_3d_model":false,"image_url":null,"decayed_at":null,"tle_current":{"epoch":"2026-09-19T19:14:00.371616Z","epoch_age_seconds":78696,"freshness":"FRESH","line1":"1 48444U 21040S   26262.80139319  .00002195  00000+0  82453-4 0  9995","line2":"2 48444  53.1605 354.8157 0001254  77.1797 282.9345 15.31711134296422","mean_motion":15.31711134,"eccentricity":0.0001254,"inclination_deg":53.1605,"raan_deg":354.8157,"arg_perigee_deg":77.1797,"mean_anomaly_deg":282.9345,"bstar":8.2453e-5,"rev_number":29642,"period_min":94.012504579731,"perigee_km":469.84796053884,"apogee_km":471.56565056528,"semimajor_km":6848.8438055521,"source":"CELESTRAK","updated_at":"2026-09-20T09:00:39.126012Z"}}}